CAPE
584 1326 1846 1502 1427 54 8 73 69 177 216 274 248 348 190 79 10 9 74 49 91 116 152 441 724 1144 1455 1342 1301 988 1045 1100 1348 1413 1401 1299 1266 1560 1060 866 927 980 1081 1365 1102 791 1095 1168 1046
1339 1512 1225 1042 89 51 33 45 59 147 200 281 217 245 329 106 27 26 71 106 92 91 162 518 711 946 1291 1057 871 1258 1167 1347 1334 1507 1548 1525 1138 814 1016 676 480 526 601 509 693 906 1071 1251 1419
977 1131 1299 151 22 57 29 22 22 44 125 234 235 284 126 94 58 29 32 25 53 104 288 322 773 957 1112 1470 1447 1163 1225 1182 1098 1068 993 629 389 1343 885 625 1515 1298 1160 1094 1098 949 866 838 802
1376 1691 1038 29 20 26 41 24 17 6 28 156 215 163 101 98 92 17 6 38 101 154 278 570 1195 1379 1425 1406 1388 1356 1325 1340 374 493 1008 1449 1299 1120 1080 1090 1193 1116 1137 1069 843 753 765 859 869
1255 1089 159 27 5 10 12 23 27 24 108 169 272 188 192 127 50 2 0 2 74 169 304 745 1001 1138 1445 1459 1481 1342 1438 840 441 1431 1429 1343 1331 1327 1088 901 1115 1061 836 804 859 631 583 549 599
915 263 66 43 10 0 58 81 266 143 238 293 220 125 126 139 7 3 0 0 9 194 412 436 556 985 1249 1347 1476 1395 943 514 433 1363 1275 931 1273 1333 1247 1093 1045 1031 896 747 723 642 553 522 436
845 99 60 34 14 0 63 108 265 272 201 222 296 110 50 156 48 6 0 0 20 169 398 604 598 704 1280 1412 1412 1457 1448 1394 1239 969 916 1081 1267 1173 1102 1230 1314 1130 872 750 571 363 334 300 250
78 177 38 4 0 16 54 74 394 484 297 325 378 94 15 101 12 0 0 0 2 84 255 429 276 734 710 775 1094 1133 1216 1299 1277 1146 692 642 977 685 373 581 528 619 700 649 547 263 105 84 63
110 75 21 0 0 21 74 116 166 273 379 311 268 207 90 132 14 1 0 0 0 2 83 509 537 761 758 520 627 986 845 553 257 157 350 495 258 372 374 85 103 611 847 1021 1301 1022 614 231 367
54 41 13 0 3 37 69 143 265 452 449 550 510 179 153 152 75 17 3 0 0 0 9 98 473 646 440 218 974 686 1057 1270 865 1016 1211 1103 981 756 725 548 540 861 877 1160 903 560 308 792 983
120 86 6 9 55 49 47 150 220 192 576 484 354 173 101 45 80 47 8 0 0 0 0 33 176 450 259 466 700 663 708 935 1287 1535 1573 1327 1227 1397 1356 1617 1504 1820 1293 1463 1227 1308 1244 643 662
169 104 31 12 29 52 47 122 163 336 400 534 446 312 138 37 0 14 2 1 0 14 8 30 126 180 232 462 805 952 622 913 1207 1313 1758 1484 1430 1154 1048 1051 1187 1470 1293 1130 1347 1288 1333 1118 1028
210 91 0 0 9 50 100 126 235 451 504 515 474 352 238 170 154 117 16 37 42 14 21 31 201 302 120 256 729 633 350 734 865 1256 1786 1873 1845 805 1515 1472 1249 1233 871 1045 1056 929 1295 1099 988
235 195 16 3 23 46 84 190 208 442 541 451 446 342 312 359 163 114 57 3 37 39 46 80 107 82 75 327 427 660 332 537 786 1073 1552 1738 1762 1908 1527 1735 1508 1576 966 715 766 1471 1130 942 662
270 223 96 104 67 48 42 44 189 468 526 536 470 412 287 208 240 244 112 10 35 21 41 23 51 50 148 422 179 388 151 243 480 620 1017 1541 1991 2159 2191 1554 1379 1357 1498 2033 1687 1294 1213 1015 565
223 94 31 166 113 74 200 21 256 380 469 495 536 505 423 336 328 329 289 153 9 61 56 39 4 15 75 64 434 318 197 319 336 315 322 628 1199 1555 1620 1299 1506 1710 1460 749 1107 710 868 886 712
125 12 13 34 143 110 256 30 99 248 275 420 488 498 472 532 509 373 330 286 110 31 30 2 0 0 0 27 233 232 235 237 178 80 53 277 1279 1585 1530 1142 1359 2089 1371 1091 1362 918 720 475 312
18 13 63 54 44 101 150 43 79 98 107 164 236 330 366 403 375 482 471 409 268 170 16 88 53 58 24 20 197 134 48 57 54 36 79 389 1321 1921 1896 1297 1436 1604 1139 1325 1233 1329 768 680 279
70 37 40 55 2 37 107 153 211 120 54 31 54 107 198 267 406 395 352 333 332 274 16 29 149 230 297 306 108 11 0 0 30 43 82 370 1331 1632 2061 1657 1070 1119 1131 908 1617 1379 1349 496 192
29 41 42 0 13 7 5 9 242 248 62 8 6 15 19 37 174 394 446 398 397 421 295 53 61 221 417 348 374 100 13 36 68 112 348 878 1708 2000 2099 2233 1912 1329 785 1125 1242 1601 1012 237 360
24 29 3 5 0 0 0 0 1 200 56 0 18 38 5 0 42 180 340 421 436 570 715 755 739 436 499 403 352 383 486 432 251 81 261 479 1427 1849 1976 2446 2532 2322 1675 273 1150 1271 1129 290 232
20 0 0 0 0 1 0 0 0 11 41 0 0 1 45 1 5 99 218 291 320 385 634 874 1148 1243 1141 1111 653 668 426 336 68 134 159 1084 1670 2053 2172 2362 2507 2665 2040 1511 1276 1531 1684 1883 1258
3 3 0 0 0 0 0 0 0 0 22 20 0 0 0 59 39 86 148 202 265 305 389 617 1045 1324 1447 1417 1293 757 577 245 75 81 541 1502 2157 1997 1918 2502 2615 2594 2416 2105 2092 2408 2287 2172 1588
0 0 0 0 0 0 3 0 19 0 0 27 20 0 0 3 82 125 168 152 178 196 303 489 983 1233 1347 1355 1352 1177 831 584 255 391 874 1241 1327 1461 1656 2436 2611 2815 2675 2551 2432 2367 2406 2303 2126
1 0 0 0 0 2 8 0 2 0 0 0 56 22 0 17 43 127 247 275 279 195 200 269 914 1394 1312 1184 1090 1208 1087 872 934 1234 1290 1419 1334 1308 1380 2698 2833 2423 2265 2612 2483 2164 1904 1616 1558
0 0 0 1 1 16 7 0 30 0 0 0 0 52 13 13 3 132 220 306 442 339 337 403 798 1339 1471 1231 1173 1155 1270 930 911 1023 1457 1671 1613 1730 2203 2986 2618 2460 2418 2132 1666 1490 1533 1539 1346
0 0 0 0 10 17 1 0 0 0 0 0 0 5 58 15 55 155 300 407 451 615 614 597 920 1503 1774 1706 1791 1868 1724 1675 1468 1660 2202 2254 2357 2334 2609 2459 2164 2058 1699 1651 1446 1480 1232 1238 1413
0 0 0 0 1 17 20 0 0 0 0 0 0 0 24 51 57 145 336 491 585 619 686 837 937 1466 1880 1959 2075 2226 2396 2528 2543 2579 2479 2767 2621 2573 2617 2139 1938 1614 1323 1206 1214 1158 1305 1254 1243
0 0 0 0 0 29 6 2 1 0 16 11 0 0 0 54 52 185 355 490 670 631 745 892 1053 1413 1987 2302 2325 2464 2569 2832 3018 2908 2974 2713 2821 2221 1920 1738 1409 1437 1276 1190 1282 1142 767 534 277
0 0 0 0 0 0 15 30 0 0 0 0 7 23 16 108 66 178 401 686 951 917 853 1061 1190 1546 2082 2427 2624 2729 2906 2812 2898 2941 2738 2398 1955 1597 1399 1318 1136 1145 1155 686 360 153 14 6 9
CIN
-369 -223 -84 -46 -4 -2 -13 -4 -5 -3 -3 -1 -4 -2 -27 -16 -27 -7 -1 -0 -0 -4 -11 -1 -3 -0 -0 -0 -0 -0 -0 -0 -1 -0 -0 -0 -0 -0 -0 -0 -0 -0 -2 -0 -0 -0 -0 -0 -0
-146 -111 -122 -58 -10 -5 -5 -2 -3 -8 -7 -3 -3 -3 -1 -4 -43 -17 -0 -0 -0 -7 -4 -11 -6 -2 -0 -2 -2 -0 -0 -0 -0 -0 -0 -0 -0 -1 -0 -1 -16 -13 -2 -5 -0 -0 -0 -0 -0
-324 -150 -32 -10 -5 -4 -5 -3 -4 -18 -7 -1 -3 -1 -14 -0 -1 -4 -2 -9 -1 -8 -3 -7 -5 -1 -0 -0 -0 -2 -1 -0 -0 -2 -4 -13 -23 -0 -0 -1 -0 -0 -0 -0 -0 -0 -4 -13 -19
-133 -60 -76 -4 -3 -2 -2 -2 -1 -1 -3 -6 -1 -19 -7 -7 -0 -23 -2 -21 -10 -7 -6 -2 -0 -0 -0 -0 -0 -0 -0 -0 -39 -32 -1 -0 -0 -0 -0 -0 -0 -0 -1 -3 -10 -13 -16 -17 -26
-111 -16 -17 -2 -1 -1 -2 -3 -9 -3 -18 -12 -1 -3 -1 -0 -1 -0 -0 -25 -7 -39 -12 -0 -0 -0 -0 -0 -0 -0 -0 -5 -29 -0 -0 -0 -0 -0 -1 -0 -0 -5 -25 -29 -27 -41 -51 -40 -42
-16 -4 -6 -5 -1 -0 -24 -18 -4 -3 -2 -1 -5 -18 -1 -0 -1 -0 -0 -0 -22 -33 -4 -0 -4 -1 -0 -0 -0 -0 -0 -17 -20 -0 -0 -0 -0 -0 -0 -2 -4 -16 -25 -36 -39 -41 -41 -47 -63
-18 -7 -3 -3 -8 -0 -36 -25 -3 -1 -7 -4 -1 -17 -14 -0 -2 -2 -0 -0 -37 -9 -8 -4 -1 -1 -0 -0 -0 -0 -0 -0 -0 -1 -3 -0 -0 -6 -12 -7 -2 -19 -34 -40 -53 -71 -73 -73 -83
-13 -1 -4 -3 -0 -80 -61 -50 -3 -14 -2 -3 -3 -22 -16 -1 -2 -0 -0 -0 -4 -17 -23 -8 -11 -3 -1 -1 -0 -0 -0 -0 -0 -5 -28 -32 -19 -28 -49 -44 -56 -56 -49 -45 -55 -97 -108 -118 -109
-7 -0 -5 -0 -0 -91 -72 -41 -15 -9 -17 -9 -9 -19 -22 -1 -3 -1 -0 -0 -0 -24 -66 -7 -6 -0 -1 -1 -4 -4 -14 -26 -47 -82 -56 -48 -17 -14 -38 -144 -137 -55 -43 -38 -27 -46 -71 -87 -86
-32 -19 -69 -0 -104 -158 -119 -49 -23 -2 -2 -3 -8 -36 -7 -1 -4 -2 -3 -0 -0 -0 -20 -16 -11 -7 -18 -2 -7 -2 -0 -2 -1 -1 -2 -9 -3 -9 -5 -28 -52 -35 -37 -44 -49 -61 -70 -55 -9
-23 -32 -189 -163 -163 -180 -218 -109 -67 -51 -4 -3 -32 -50 -45 -72 -25 -51 -7 -0 -0 -0 -0 -44 -19 -2 -9 -4 -8 -11 -3 -2 -1 -3 -0 -9 -7 -4 -7 -18 -7 -13 -34 -11 -30 -24 -26 -1 -3
-23 -27 -163 -272 -274 -231 -257 -160 -115 -18 -6 -4 -20 -30 -46 -104 -0 -45 -4 -2 -0 -3 -7 -26 -19 -6 -17 -11 -6 -5 -2 -2 -1 -2 -5 -2 -5 -0 -5 -5 -1 -4 -1 -9 -1 -3 -7 -1 -3
-9 -21 -0 -0 -339 -261 -198 -180 -125 -64 -58 -23 -21 -22 -33 -31 -23 -41 -5 -113 -1 -15 -3 -3 -2 -24 -31 -22 -1 -3 -7 -2 -0 -0 -4 -0 -1 -36 -16 -1 -2 -5 -5 -1 -2 -1 -1 -4 -3
-5 -2 -111 -144 -252 -260 -211 -143 -143 -83 -80 -97 -60 -58 -37 -6 -39 -46 -92 -17 -2 -2 -11 -1 -10 -31 -24 -11 -33 -3 -8 -3 -0 -1 -3 -3 -2 -7 -24 -6 -1 -8 -1 -0 -1 -3 -10 -4 -2
-4 -5 -47 -69 -128 -200 -233 -208 -169 -102 -112 -103 -99 -96 -103 -87 -17 -4 -44 -143 -72 -54 -6 -5 -7 -35 -69 -21 -71 -12 -19 -12 -17 -10 -12 -7 -0 -0 -0 -1 -3 -1 -1 -5 -3 -4 -2 -3 -1
-6 -9 -7 -27 -38 -77 -57 -104 -104 -124 -126 -133 -102 -92 -76 -68 -31 -24 -32 -86 -42 -120 -120 -2 -14 -24 -87 -104 -13 -5 -15 -20 -9 -17 -24 -12 -2 -1 -0 -0 -1 -18 -15 -34 -2 -2 -1 -1 -1
-13 -100 -8 -25 -9 -26 -11 -107 -142 -137 -132 -117 -110 -90 -76 -46 -33 -37 -48 -50 -108 -157 -113 -60 -0 -0 -0 -148 -33 -37 -49 -55 -36 -51 -54 -21 -0 -0 -9 -1 -1 -5 -9 -20 -1 -4 -1 -6 -20
-32 -47 -6 -5 -11 -12 -3 -71 -133 -170 -183 -161 -128 -119 -101 -62 -57 -41 -59 -60 -88 -94 -184 -88 -101 -103 -122 -66 -52 -52 -61 -67 -61 -62 -55 -35 -2 -1 -0 -2 -2 -9 -2 -1 -1 -8 -14 -32 -22
-5 -20 -11 -5 -0 -1 -4 -10 -54 -110 -167 -198 -169 -142 -111 -85 -61 -65 -60 -52 -54 -59 -231 -206 -108 -62 -50 -42 -61 -31 -0 -0 -74 -70 -79 -50 -3 -0 -0 -1 -1 -0 -5 -1 -3 -9 -2 -17 -12
-4 -4 -6 -2 -2 -1 -1 -2 -9 -33 -104 -163 -183 -209 -207 -162 -109 -91 -96 -90 -82 -84 -118 -241 -208 -139 -98 -87 -68 -86 -29 -62 -48 -57 -42 -31 -4 -0 -0 -0 -1 -1 -6 -18 -27 -10 -13 -13 -19
-3 -6 -8 -12 -0 -0 -0 -0 -1 -14 -57 -0 -152 -140 -70 -0 -165 -124 -135 -132 -117 -100 -100 -96 -103 -141 -131 -124 -101 -87 -75 -75 -65 -71 -49 -24 -2 -3 -1 -1 -1 -1 -14 -21 -27 -25 -25 -22 -11
-7 -8 -0 -0 -0 -15 -0 -0 -0 -13 -42 -0 -0 -8 -109 -19 -141 -151 -158 -176 -163 -164 -155 -124 -94 -75 -66 -68 -103 -77 -81 -60 -61 -25 -12 -0 -1 -0 -1 -1 -1 -0 -2 -3 -20 -23 -26 -4 -5
-18 -8 -0 -0 -0 -0 -0 -0 -0 -0 -51 -84 -0 -0 -0 -106 -110 -138 -167 -171 -197 -186 -197 -198 -161 -102 -73 -65 -64 -89 -108 -99 -91 -66 -3 -0 -5 -13 -4 -0 -0 -1 -1 -1 -1 -3 -1 -1 -4
-0 -0 -0 -0 -0 -1 -2 -0 -25 -0 -0 -45 -74 -0 -0 -80 -93 -98 -126 -171 -199 -201 -202 -208 -201 -177 -131 -89 -83 -97 -89 -96 -97 -43 -7 -2 -2 -2 -0 -1 -0 -0 -1 -1 -1 -1 -0 -2 -4
-1 -0 -0 -0 -0 -3 -5 -0 -23 -0 -0 -0 -45 -53 -0 -100 -108 -99 -97 -108 -166 -194 -192 -217 -220 -189 -184 -178 -164 -135 -117 -118 -91 -40 -9 -2 -3 -3 -5 -6 -5 -1 -1 -1 -2 -13 -18 -16 -7
-0 -0 -0 -4 -4 -9 -16 -0 -8 -0 -0 -0 -0 -28 -57 -85 -15 -92 -98 -101 -131 -150 -176 -192 -222 -211 -193 -193 -183 -162 -132 -134 -114 -89 -32 -6 -2 -1 -2 -6 -1 -0 -0 -0 -21 -21 -1 -3 -2
-0 -0 -0 -1 -7 -14 -2 -0 -0 -0 -0 -0 -0 -6 -23 -34 -55 -77 -72 -95 -115 -138 -167 -191 -177 -197 -175 -164 -128 -109 -111 -98 -53 -49 -7 -3 -4 -1 -5 -1 -4 -1 -1 -1 -2 -2 -2 -5 -2
-0 -0 -0 -0 -6 -7 -15 -0 -0 -0 -0 -0 -0 -0 -22 -22 -28 -60 -61 -79 -92 -112 -140 -161 -174 -184 -163 -141 -110 -82 -55 -34 -32 -24 -16 -0 -2 -0 -1 -5 -3 -0 -3 -4 -5 -5 -1 -1 -1
-0 -0 -0 -0 -0 -11 -9 -4 -3 -0 -4 -5 -0 -0 -0 -25 -27 -34 -44 -74 -96 -93 -111 -135 -150 -159 -163 -124 -84 -50 -24 -13 -6 -4 -1 -1 -3 -15 -10 -1 -1 -2 -2 -2 -0 -1 -2 -12 -54
-0 -0 -0 -0 -0 -0 -18 -13 -0 -0 -0 -0 -35 -43 -28 -27 -31 -27 -33 -53 -77 -97 -112 -108 -145 -160 -142 -111 -75 -49 -16 -8 -0 -2 -2 -9 -24 -28 -21 -7 -13 -3 -4 -9 -47 -123 -300 -21 -2
Wind_Speed
18 20 18 16 15 11 10 10 10 9 9 11 14 13 12 7 8 5 7 15 23 26 29 31 13 11 13 9 7 13 13 7 5 3 2 4 12 15 17 17 17 16 18 22 26 27 28 29 29
17 18 14 14 14 10 10 10 10 11 9 10 11 12 11 13 5 9 15 7 6 18 25 31 7 4 3 8 11 12 9 5 2 2 5 5 9 12 15 15 17 19 19 21 24 25 26 27 27
14 15 14 12 11 11 10 11 12 9 10 10 10 10 9 5 2 11 15 13 10 12 31 27 14 10 6 6 6 2 3 3 3 4 4 5 7 9 14 15 14 16 17 18 19 22 23 24 25
15 15 13 13 12 11 11 12 12 12 11 11 13 12 6 11 3 4 14 3 14 26 24 19 13 12 7 5 4 2 5 8 9 7 9 9 7 9 13 14 15 15 16 17 19 19 20 22 23
14 14 14 15 15 13 12 12 11 12 11 10 10 11 5 15 17 17 13 11 7 6 16 17 15 12 9 6 7 6 10 12 11 7 11 12 11 12 13 14 15 15 16 17 19 19 19 21 21
12 11 7 14 17 18 10 15 17 11 13 12 14 10 6 15 18 18 15 12 12 16 19 20 15 14 9 11 10 9 7 9 11 10 12 12 12 12 14 15 15 17 17 17 16 16 17 18 19
14 14 7 16 19 16 12 22 16 13 9 9 12 8 5 14 15 15 16 6 10 12 9 14 16 14 12 10 17 13 10 8 10 11 9 12 13 13 16 17 17 17 17 17 16 17 17 17 12
12 11 8 8 13 18 3 10 16 16 11 12 15 8 5 16 14 13 9 12 8 6 4 8 27 20 19 22 19 17 12 10 8 12 12 13 13 15 17 16 15 16 16 16 16 15 15 15 14
11 9 9 9 11 18 24 24 8 22 22 7 13 18 15 18 19 15 11 8 4 3 3 4 7 10 22 22 21 22 24 18 10 11 15 18 13 15 16 15 16 16 16 16 16 15 15 11 11
13 9 7 7 5 13 14 22 25 24 23 20 19 21 24 20 16 16 12 7 8 6 8 7 7 23 22 21 24 23 21 17 9 10 11 6 13 14 15 16 16 16 16 14 14 14 11 11 4
9 7 6 6 5 9 21 25 22 22 21 21 22 27 25 23 13 17 14 12 17 22 23 16 23 23 22 20 12 20 19 17 9 10 12 13 14 16 15 14 15 12 13 12 10 11 11 20 21
13 12 11 10 8 10 15 21 21 14 20 24 25 28 27 26 26 25 17 21 25 23 21 25 23 22 10 20 15 19 21 19 16 10 13 14 17 17 20 19 19 17 18 18 22 21 21 20 18
12 13 17 13 10 9 12 15 21 23 23 26 26 28 28 28 27 27 27 27 28 29 30 25 20 23 22 22 17 9 14 12 15 13 11 13 14 15 15 17 13 8 10 10 10 15 13 8 5
11 13 17 18 18 16 18 20 20 22 25 26 27 28 28 27 27 27 27 28 28 31 29 25 21 24 23 22 21 19 17 19 14 13 13 11 14 5 11 11 13 10 20 9 9 15 11 11 7
11 14 16 15 15 12 22 20 19 22 26 26 26 26 27 26 27 27 27 28 30 30 29 28 26 24 24 23 22 20 19 17 16 14 13 11 10 20 9 16 8 9 18 12 10 9 8 8 7
25 23 22 14 13 14 16 16 20 24 25 26 26 26 26 26 26 27 27 28 29 29 29 28 27 25 25 23 21 20 18 17 15 13 12 11 9 9 8 7 8 18 12 8 9 12 16 10 8
21 13 16 15 10 4 18 17 22 25 24 25 26 26 26 26 26 26 27 28 29 29 29 29 27 26 25 23 21 20 18 16 14 13 13 20 14 15 7 5 9 7 6 7 9 10 12 14 13
19 24 11 17 19 19 13 14 23 24 24 25 25 25 25 25 26 26 27 28 28 28 28 28 27 26 24 22 20 20 19 17 15 12 9 20 21 17 17 9 10 13 6 8 8 15 13 12 13
25 13 17 12 12 20 16 21 22 23 24 24 24 24 25 25 25 25 26 26 26 26 27 26 25 23 22 19 17 17 18 14 11 8 6 12 17 20 20 22 24 19 14 13 12 10 10 13 16
20 23 20 13 15 19 22 21 21 22 23 22 23 24 25 25 25 25 25 25 25 25 25 25 24 23 21 19 18 20 18 14 11 7 8 7 11 22 22 22 22 19 18 15 11 10 13 12 15
29 27 20 15 20 21 19 23 24 23 21 20 22 24 25 26 26 26 24 23 24 25 26 26 25 23 22 22 19 19 17 14 11 8 6 7 8 8 7 18 18 19 15 12 11 9 10 15 21
31 28 18 20 22 18 22 20 25 24 25 24 23 24 26 27 26 24 24 24 27 27 26 26 23 23 21 21 20 18 16 13 10 8 7 9 8 8 7 9 13 14 11 15 11 10 9 10 14
27 18 26 24 24 20 26 21 23 23 25 25 25 26 27 27 27 26 26 27 28 27 25 23 22 21 20 19 19 16 14 12 9 8 6 7 5 4 5 8 7 10 9 7 9 12 12 14 14
37 24 27 27 26 25 27 25 21 21 25 26 25 25 26 26 26 26 26 28 27 26 24 23 21 20 19 17 15 15 12 9 8 7 5 5 4 5 4 8 9 9 10 12 12 15 16 17 22
37 33 33 31 30 26 28 27 20 4 18 27 25 26 25 26 25 25 25 26 25 25 23 21 19 18 17 16 14 13 11 9 8 6 4 3 2 2 9 10 11 10 13 15 18 21 22 24 25
43 40 36 33 31 24 26 28 24 7 10 22 26 25 26 26 26 25 23 23 24 23 22 20 17 16 16 14 13 11 10 8 6 4 3 2 0 4 12 13 13 12 13 16 18 20 22 23 25
32 47 40 37 31 29 1 24 30 13 26 25 26 25 26 26 26 25 22 20 20 20 19 18 16 14 14 13 11 10 9 8 6 4 1 2 4 5 10 12 15 15 16 17 20 20 26 27 27
48 44 45 42 35 34 18 2 28 10 29 25 24 28 25 24 25 22 21 18 17 16 15 15 15 13 12 12 11 9 8 6 3 1 3 5 8 9 11 16 17 18 21 23 23 22 25 27 29
41 46 45 41 37 29 33 11 2 3 8 9 25 26 24 24 22 19 17 15 15 14 13 13 13 11 10 9 9 8 6 4 3 4 7 10 15 17 17 18 18 19 23 23 23 26 26 29 33
30 44 27 44 14 35 29 23 8 2 12 16 6 9 15 16 16 13 13 13 12 12 12 10 11 9 7 7 6 5 5 4 5 8 13 14 16 16 15 19 22 22 22 23 27 28 32 32 33
Wind_Direction
149 141 159 179 200 222 318 5 327 348 338 329 358 7 29 334 291 352 192 184 174 166 159 152 176 177 176 179 181 181 180 196 209 222 342 359 31 36 41 40 40 36 42 53 67 71 76 79 81
152 167 175 201 225 300 306 306 333 337 333 337 346 8 11 14 14 81 156 193 189 182 166 149 88 131 151 189 188 186 195 213 279 298 1 2 15 28 36 35 43 47 47 53 62 65 68 71 80
178 167 205 216 282 312 321 326 0 334 338 294 329 345 304 354 37 201 85 189 169 164 110 97 76 71 64 200 205 240 232 341 296 328 341 347 4 15 32 36 30 39 42 45 47 53 60 67 83
164 164 171 347 349 328 349 355 15 16 358 18 44 7 302 210 255 80 85 111 73 99 89 81 70 66 55 44 24 323 11 24 19 16 20 12 353 14 31 35 34 34 34 35 40 40 41 64 71
182 213 196 0 0 352 347 348 326 28 4 346 5 39 354 59 83 86 84 81 67 64 74 74 69 61 53 41 34 22 33 40 31 3 28 27 20 24 26 31 33 31 30 37 40 37 42 72 66
204 188 272 0 14 24 328 36 49 6 27 35 53 42 345 71 88 91 90 82 74 75 81 82 68 68 47 49 42 29 2 15 29 21 28 27 21 21 28 29 30 39 39 35 23 18 22 37 70
174 155 268 6 37 9 2 85 48 35 358 353 53 24 324 79 88 85 92 70 69 66 48 61 71 66 55 41 68 43 22 6 21 29 9 27 31 25 32 39 35 34 36 46 37 37 39 32 149
206 222 303 295 357 31 117 356 36 48 28 36 69 18 41 92 91 88 80 87 67 32 26 41 130 87 74 91 67 62 34 19 2 27 31 35 30 38 47 40 10 356 0 22 14 44 44 45 76
198 203 284 293 345 47 118 102 201 68 78 196 221 91 93 96 100 96 93 79 51 278 288 312 31 46 94 91 85 92 103 68 19 21 46 77 25 53 50 5 11 358 348 340 339 26 19 86 113
155 325 281 274 254 175 177 102 116 104 88 62 63 85 107 103 97 98 99 96 93 82 245 34 66 112 115 98 127 126 128 150 303 300 316 58 335 336 345 23 41 34 32 43 43 43 72 58 44
333 349 316 325 321 2 59 84 126 99 90 104 97 110 111 110 85 101 96 99 118 128 122 97 131 140 137 97 224 172 153 63 332 295 301 334 333 345 25 34 23 37 37 33 44 35 42 340 339
12 4 8 9 359 10 32 58 50 6 51 92 102 114 119 124 131 137 102 119 133 135 128 133 134 125 43 186 223 160 109 127 169 290 309 318 314 325 331 341 338 25 275 4 327 331 334 348 3
25 19 31 24 14 16 24 26 44 49 65 90 99 116 125 133 141 142 153 153 137 146 144 136 118 142 148 172 206 269 200 223 200 191 298 284 292 286 275 318 235 189 127 100 93 252 222 163 116
37 41 45 44 50 48 49 55 43 56 77 91 109 121 135 141 150 151 151 148 149 150 160 143 126 143 144 170 181 184 180 164 215 235 268 219 271 323 227 212 234 85 321 196 170 249 211 239 124
62 63 59 47 36 23 74 45 46 77 95 99 113 129 141 150 153 154 154 142 151 156 159 155 154 146 159 169 176 172 150 160 160 171 146 180 194 297 202 301 143 60 16 72 104 178 169 176 178
147 134 94 54 38 26 197 32 75 102 107 114 125 133 141 150 157 152 152 160 163 159 156 161 159 156 158 162 168 178 169 169 160 167 190 189 109 89 190 136 95 11 50 106 78 57 36 70 111
217 251 83 47 323 310 177 51 101 128 122 130 140 139 139 143 152 153 158 157 164 162 161 164 166 167 162 164 172 172 172 171 178 188 229 307 250 39 99 124 68 72 89 124 63 56 52 51 67
100 177 29 73 112 186 198 40 109 129 136 139 140 139 142 140 147 144 147 151 157 159 160 165 166 168 167 170 170 186 190 188 187 179 163 0 353 353 291 229 56 41 106 114 78 25 43 55 52
217 251 199 240 237 193 206 102 121 126 142 135 133 137 140 140 138 140 147 144 146 152 159 160 162 162 164 159 154 160 176 171 166 152 97 33 8 349 354 283 318 11 37 26 34 65 63 38 16
221 202 200 234 223 206 174 181 120 132 143 126 134 135 143 137 130 136 140 142 148 149 154 160 164 164 161 163 165 181 185 179 170 112 72 68 30 323 337 344 350 9 14 30 44 47 23 23 8
196 187 209 213 204 181 199 181 159 143 134 125 134 141 146 145 137 140 139 140 145 152 158 161 165 166 169 173 167 174 181 185 181 169 145 122 125 138 106 6 6 2 21 31 36 41 23 3 344
193 213 229 210 203 213 180 197 169 146 158 151 143 146 150 154 150 141 141 144 158 160 158 163 161 165 166 168 175 170 177 173 161 151 129 100 110 108 98 52 29 19 16 357 5 4 1 357 346
216 237 221 222 213 217 186 196 137 143 158 157 154 153 157 152 154 148 150 157 162 158 155 153 155 158 163 160 170 169 168 175 164 158 140 97 121 113 95 61 55 33 29 21 5 352 345 343 339
214 238 228 222 216 212 209 202 145 140 161 162 155 153 154 154 154 153 151 158 159 157 154 150 146 148 152 155 156 168 162 150 151 119 121 109 96 67 68 38 27 18 12 4 356 347 340 336 333
224 226 212 208 206 216 185 199 244 49 156 165 156 157 152 152 153 152 151 155 157 158 154 149 144 148 148 150 152 154 159 157 156 153 154 163 145 75 25 25 14 6 2 353 345 339 335 332 330
209 201 210 199 202 198 223 216 220 276 88 190 161 158 159 156 156 156 156 156 157 159 158 156 147 149 152 153 154 154 155 155 159 162 162 170 152 27 23 9 2 356 352 348 345 340 336 334 333
236 205 213 221 216 237 173 239 207 267 212 205 180 162 161 161 160 159 155 154 156 158 160 159 155 154 160 161 157 155 158 168 163 169 106 16 8 355 356 357 355 351 350 347 344 339 338 336 335
214 209 211 221 229 226 256 266 232 149 192 173 169 179 164 162 164 158 159 158 159 158 158 159 160 158 158 161 158 159 159 156 157 103 345 346 351 355 355 356 354 351 347 345 344 342 341 339 338
197 219 199 219 221 239 233 284 264 144 133 302 198 171 163 164 162 159 157 158 162 160 157 159 160 155 152 147 149 145 136 128 76 19 2 1 1 357 355 351 351 350 347 348 349 346 341 339 334
235 221 180 215 226 237 250 288 154 213 281 274 340 131 148 153 157 156 155 153 155 160 157 155 155 152 140 131 120 94 81 63 44 27 14 7 0 358 358 356 355 357 355 351 345 342 339 337 336